| time (UTC) | temp C | wind direction | speed KPH | gust KPH | rain 1hr cm | rain 24hr cm | rain mn cm | humidity % | barometer mb |
| 20260507075504 | 12 | 223 | 1.6 | 3.2 | 0.00 | 0.51 | 0.00 | 92 | 1099.8 |
| 20260507075004 | 12 | 223 | 1.6 | 3.2 | 0.00 | 0.51 | 0.00 | 92 | 1099.8 |
| 20260507074504 | 12 | 223 | 1.6 | 4.8 | 0.00 | 0.51 | 0.00 | 92 | 1099.8 |
| 20260507074004 | 12 | 223 | 0.0 | 4.8 | 0.00 | 0.51 | 0.00 | 92 | 1099.8 |
| 20260507073505 | 12 | 223 | 1.6 | 3.2 | 0.00 | 0.51 | 0.00 | 92 | 1099.8 |
| 20260507073004 | 12 | 223 | 1.6 | 4.8 | 0.00 | 0.51 | 0.00 | 92 | 1099.8 |
| 20260507072504 | 12 | 223 | 1.6 | 3.2 | 0.00 | 0.51 | 0.00 | 92 | 1099.8 |
| 20260507072005 | 12 | 223 | 0.0 | 4.8 | 0.00 | 0.51 | 0.00 | 92 | 1099.8 |
| 20260507071505 | 12 | 223 | 3.2 | 9.7 | 0.00 | 0.51 | 0.00 | 92 | 1099.8 |
| 20260507071004 | 12 | 223 | 3.2 | 8.0 | 0.00 | 0.51 | 0.00 | 92 | 1099.8 |
| 20260507070504 | 12 | 223 | 1.6 | 3.2 | 0.00 | 0.51 | 0.00 | 92 | 1099.8 |
| 20260507065505 | 12 | 223 | 0.0 | 4.8 | 0.00 | 0.51 | 0.00 | 92 | 1099.8 |
| 20260507065004 | 12 | 223 | 1.6 | 4.8 | 0.00 | 0.51 | 0.00 | 92 | 1099.8 |
| 20260507064505 | 12 | 223 | 0.0 | 1.6 | 0.00 | 0.51 | 0.00 | 92 | 1099.8 |
| 20260507063504 | 12 | 223 | 1.6 | 3.2 | 0.00 | 0.51 | 0.00 | 92 | 1099.8 |
| 20260507063004 | 12 | 223 | 0.0 | 3.2 | 0.00 | 0.51 | 0.00 | 92 | 1099.8 |
| 20260507062504 | 12 | 223 | 1.6 | 3.2 | 0.00 | 0.51 | 0.00 | 92 | 1099.8 |
| 20260507062004 | 12 | 223 | 1.6 | 4.8 | 0.00 | 0.51 | 0.00 | 92 | 1099.8 |
| 20260507061504 | 12 | 223 | 3.2 | 8.0 | 0.00 | 0.51 | 0.00 | 91 | 1099.8 |
| 20260507061004 | 12 | 223 | 1.6 | 4.8 | 0.00 | 0.51 | 0.00 | 91 | 1099.8 |
| 20260507060504 | 12 | 223 | 0.0 | 1.6 | 0.00 | 0.51 | 0.00 | 91 | 1099.8 |
| 20260507060004 | 12 | 223 | 1.6 | 8.0 | 0.00 | 0.51 | 0.00 | 91 | 1099.8 |
| 20260507055504 | 12 | 223 | 0.0 | 3.2 | 0.00 | 0.51 | 0.00 | 91 | 1099.8 |
| 20260507054504 | 12 | 223 | 1.6 | 8.0 | 0.00 | 0.51 | 0.00 | 91 | 1099.8 |
| 20260507054005 | 12 | 223 | 1.6 | 9.7 | 0.00 | 0.51 | 0.00 | 91 | 1099.8 |
| 20260507053505 | 12 | 223 | 4.8 | 11.3 | 0.00 | 0.51 | 0.00 | 91 | 1099.8 |
| 20260507053005 | 12 | 223 | 1.6 | 8.0 | 0.00 | 0.51 | 0.00 | 91 | 1099.8 |
| 20260507052504 | 12 | 223 | 3.2 | 8.0 | 0.00 | 0.51 | 0.00 | 91 | 1099.8 |
| 20260507051504 | 12 | 223 | 1.6 | 9.7 | 0.00 | 0.51 | 0.00 | 91 | 1099.8 |
| 20260507051004 | 12 | 223 | 4.8 | 9.7 | 0.00 | 0.51 | 0.00 | 91 | 1099.8 |
| 20260507050505 | 12 | 223 | 4.8 | 11.3 | 0.00 | 0.51 | 0.00 | 91 | 1099.8 |
| 20260507050005 | 12 | 223 | 4.8 | 12.9 | 0.00 | 0.51 | 0.00 | 91 | 1099.8 |
| 20260507045504 | 12 | 223 | 3.2 | 8.0 | 0.00 | 0.51 | 0.00 | 91 | 1099.8 |
| 20260507045004 | 12 | 209 | 1.6 | 9.7 | 0.00 | 0.51 | 0.00 | 91 | 1099.8 |
| 20260507044004 | 12 | 192 | 3.2 | 9.7 | 0.00 | 0.51 | 0.00 | 91 | 1099.8 |
| 20260507042505 | 12 | 208 | 4.8 | 12.9 | 0.00 | 0.51 | 0.00 | 91 | 1099.8 |
| 20260507042004 | 12 | 220 | 1.6 | 11.3 | 0.00 | 0.51 | 0.00 | 91 | 1099.8 |
| 20260507041504 | 12 | 220 | 3.2 | 11.3 | 0.00 | 0.51 | 0.00 | 91 | 1099.8 |
| 20260507041004 | 12 | 218 | 4.8 | 11.3 | 0.00 | 0.51 | 0.00 | 91 | 1099.8 |
| 20260507040504 | 12 | 215 | 3.2 | 9.7 | 0.00 | 0.51 | 0.00 | 91 | 1099.8 |
| 20260507040005 | 12 | 191 | 1.6 | 14.5 | 0.00 | 0.51 | 0.00 | 91 | 1099.8 |
| 20260507035504 | 12 | 219 | 3.2 | 14.5 | 0.00 | 0.51 | 0.51 | 91 | 1099.8 |
| 20260507035004 | 12 | 222 | 4.8 | 16.1 | 0.00 | 0.51 | 0.51 | 91 | 1099.8 |
| 20260507034504 | 12 | 227 | 3.2 | 9.7 | 0.00 | 0.51 | 0.51 | 91 | 1099.8 |
| 20260507034005 | 12 | 227 | 3.2 | 14.5 | 0.00 | 0.51 | 0.51 | 91 | 1099.8 |
| 20260507033504 | 12 | 227 | 4.8 | 12.9 | 0.00 | 0.51 | 0.51 | 91 | 1099.8 |
| 20260507033004 | 12 | 222 | 4.8 | 12.9 | 0.00 | 0.51 | 0.51 | 91 | 1099.8 |
| 20260507032504 | 12 | 215 | 6.4 | 14.5 | 0.00 | 0.51 | 0.51 | 91 | 1099.8 |
| 20260507031504 | 12 | 222 | 3.2 | 11.3 | 0.00 | 0.51 | 0.51 | 91 | 1099.8 |
| 20260507031004 | 12 | 213 | 4.8 | 19.3 | 0.00 | 0.51 | 0.51 | 91 | 1099.8 |
| 20260507030504 | 12 | 238 | 6.4 | 19.3 | 0.00 | 0.51 | 0.51 | 91 | 1099.8 |
| 20260507030004 | 12 | 226 | 8.0 | 22.5 | 0.00 | 0.51 | 0.51 | 91 | 1099.8 |
| 20260507025505 | 12 | 236 | 4.8 | 19.3 | 0.00 | 0.51 | 0.51 | 91 | 1099.8 |
| 20260507025004 | 12 | 216 | 6.4 | 20.9 | 0.00 | 0.51 | 0.51 | 91 | 1099.8 |
| 20260507024504 | 12 | 242 | 4.8 | 16.1 | 0.00 | 0.51 | 0.51 | 91 | 1099.8 |
| 20260507024005 | 12 | 242 | 3.2 | 8.0 | 0.00 | 0.51 | 0.51 | 91 | 1099.8 |
| 20260507023504 | 12 | 242 | 4.8 | 14.5 | 0.00 | 0.51 | 0.51 | 91 | 1099.8 |
| 20260507023004 | 12 | 242 | 6.4 | 16.1 | 0.00 | 0.51 | 0.51 | 91 | 1099.8 |
| 20260507022504 | 12 | 242 | 4.8 | 20.9 | 0.00 | 0.51 | 0.51 | 91 | 1099.8 |
| 20260507022005 | 12 | 237 | 8.0 | 16.1 | 0.00 | 0.51 | 0.51 | 91 | 1099.8 |
| 20260507021505 | 12 | 238 | 4.8 | 19.3 | 0.00 | 0.51 | 0.51 | 91 | 1099.8 |
| 20260507021005 | 12 | 223 | 8.0 | 25.7 | 0.00 | 0.51 | 0.51 | 91 | 1099.8 |
| 20260507020004 | 13 | 234 | 6.4 | 19.3 | 0.00 | 0.51 | 0.51 | 91 | 1099.8 |
| 20260507015505 | 13 | 225 | 6.4 | 16.1 | 0.00 | 0.51 | 0.51 | 91 | 1099.8 |
| 20260507014004 | 13 | 204 | 9.7 | 19.3 | 0.03 | 0.51 | 0.51 | 90 | 1099.8 |
| 20260507013505 | 13 | 241 | 8.0 | 19.3 | 0.05 | 0.51 | 0.51 | 91 | 1099.8 |
| 20260507012505 | 13 | 228 | 8.0 | 22.5 | 0.08 | 0.51 | 0.51 | 90 | 1099.8 |
| 20260507012004 | 13 | 240 | 9.7 | 19.3 | 0.08 | 0.51 | 0.51 | 90 | 1099.8 |
| 20260507011505 | 13 | 206 | 8.0 | 19.3 | 0.10 | 0.51 | 0.51 | 90 | 1099.8 |
| 20260507011005 | 13 | 250 | 8.0 | 20.9 | 0.13 | 0.51 | 0.51 | 90 | 1099.8 |
| 20260507010505 | 13 | 232 | 8.0 | 14.5 | 0.13 | 0.51 | 0.51 | 90 | 1099.8 |
| 20260507005504 | 13 | 211 | 11.3 | 32.2 | 0.18 | 0.51 | 0.51 | 90 | 1099.8 |
| 20260507005004 | 13 | 232 | 11.3 | 25.7 | 0.18 | 0.48 | 0.48 | 90 | 1099.8 |
| 20260507004504 | 13 | 234 | 8.0 | 16.1 | 0.20 | 0.48 | 0.48 | 90 | 1099.8 |
| 20260507003505 | 13 | 246 | 6.4 | 20.9 | 0.23 | 0.46 | 0.46 | 90 | 1099.8 |
| 20260507003005 | 13 | 263 | 6.4 | 32.2 | 0.30 | 0.46 | 0.46 | 90 | 1099.8 |
| 20260507002504 | 13 | 193 | 8.0 | 24.1 | 0.28 | 0.43 | 0.43 | 90 | 1099.8 |
| 20260507002004 | 13 | 231 | 8.0 | 19.3 | 0.30 | 0.43 | 0.43 | 90 | 1099.8 |
| 20260507001504 | 13 | 227 | 4.8 | 19.3 | 0.28 | 0.41 | 0.41 | 90 | 1099.8 |
| 20260507001005 | 13 | 223 | 8.0 | 24.1 | 0.28 | 0.38 | 0.38 | 90 | 1099.8 |
| 20260507000504 | 13 | 250 | 9.7 | 20.9 | 0.28 | 0.38 | 0.38 | 90 | 1099.8 |
| 20260507000004 | 13 | 194 | 9.7 | 25.7 | 0.28 | 0.36 | 0.36 | 90 | 1099.8 |
| 20260506235504 | 13 | 236 | 4.8 | 14.5 | 0.28 | 0.33 | 0.33 | 90 | 1099.8 |
| 20260506234505 | 13 | 240 | 9.7 | 20.9 | 0.25 | 0.28 | 0.28 | 89 | 1099.8 |
| 20260506234005 | 13 | 228 | 9.7 | 22.5 | 0.23 | 0.25 | 0.25 | 89 | 1099.8 |
| 20260506233504 | 13 | 230 | 9.7 | 22.5 | 0.20 | 0.23 | 0.23 | 89 | 1099.8 |
| 20260506233005 | 13 | 223 | 8.0 | 19.3 | 0.13 | 0.15 | 0.15 | 89 | 1099.8 |
| 20260506232504 | 13 | 241 | 4.8 | 22.5 | 0.15 | 0.15 | 0.15 | 89 | 1099.8 |
| 20260506232004 | 13 | 234 | 12.9 | 24.1 | 0.13 | 0.13 | 0.13 | 89 | 1099.8 |
| 20260506231504 | 13 | 195 | 11.3 | 35.4 | 0.13 | 0.13 | 0.13 | 89 | 1099.8 |
| 20260506231005 | 13 | 213 | 11.3 | 25.7 | 0.10 | 0.10 | 0.10 | 88 | 1099.8 |
| 20260506230504 | 13 | 229 | 9.7 | 32.2 | 0.10 | 0.10 | 0.10 | 88 | 1099.8 |
| 20260506230004 | 13 | 259 | 9.7 | 24.1 | 0.08 | 0.08 | 0.08 | 88 | 1099.8 |
| 20260506225505 | 13 | 236 | 6.4 | 20.9 | 0.05 | 0.05 | 0.05 | 88 | 1099.8 |
| 20260506225004 | 13 | 225 | 9.7 | 32.2 | 0.05 | 0.05 | 0.05 | 87 | 1099.8 |
| 20260506224506 | 13 | 223 | 8.0 | 32.2 | 0.03 | 0.03 | 0.03 | 87 | 1099.8 |
| 20260506223504 | 13 | 212 | 9.7 | 25.7 | 0.03 | 0.03 | 0.03 | 87 | 1099.8 |
| 20260506222504 | 13 | 222 | 9.7 | 24.1 | 0.00 | 0.00 | 0.00 | 86 | 1099.8 |
| 20260506222004 | 13 | 228 | 9.7 | 32.2 | 0.00 | 0.00 | 0.00 | 85 | 1099.8 |
| 20260506221504 | 14 | 247 | 9.7 | 24.1 | 0.00 | 0.00 | 0.00 | 85 | 1099.8 |
| 20260506221004 | 14 | 258 | 8.0 | 19.3 | 0.00 | 0.00 | 0.00 | 84 | 1099.8 |
| 20260506220505 | 14 | 221 | 9.7 | 20.9 | 0.00 | 0.00 | 0.00 | 83 | 1099.8 |
| 20260506220005 | 14 | 234 | 11.3 | 20.9 | 0.00 | 0.00 | 0.00 | 83 | 1099.8 |
| 20260506215505 | 14 | 232 | 8.0 | 16.1 | 0.00 | 0.00 | 0.00 | 83 | 1099.8 |
| 20260506215006 | 14 | 227 | 8.0 | 16.1 | 0.00 | 0.00 | 0.00 | 83 | 1099.8 |
| 20260506214005 | 14 | 238 | 11.3 | 29.0 | 0.00 | 0.00 | 0.00 | 83 | 1099.8 |
| 20260506213504 | 15 | 218 | 11.3 | 29.0 | 0.00 | 0.00 | 0.00 | 83 | 1099.8 |
| 20260506213004 | 14 | 236 | 11.3 | 22.5 | 0.00 | 0.00 | 0.00 | 83 | 1099.8 |
| 20260506212504 | 14 | 232 | 8.0 | 32.2 | 0.00 | 0.00 | 0.00 | 83 | 1099.8 |
| 20260506212004 | 14 | 227 | 8.0 | 19.3 | 0.00 | 0.00 | 0.00 | 83 | 1099.8 |
| 20260506211504 | 14 | 223 | 12.9 | 24.1 | 0.00 | 0.00 | 0.00 | 83 | 1099.8 |
| 20260506211004 | 14 | 253 | 8.0 | 20.9 | 0.00 | 0.00 | 0.00 | 82 | 1099.8 |
| 20260506210504 | 14 | 240 | 9.7 | 20.9 | 0.00 | 0.00 | 0.00 | 82 | 1099.8 |
| 20260506210005 | 14 | 252 | 11.3 | 32.2 | 0.00 | 0.00 | 0.00 | 82 | 1099.8 |
| 20260506205504 | 14 | 222 | 16.1 | 38.6 | 0.00 | 0.00 | 0.00 | 82 | 1099.8 |
| 20260506205004 | 14 | 241 | 11.3 | 25.7 | 0.00 | 0.00 | 0.00 | 81 | 1099.8 |
| 20260506204504 | 15 | 217 | 12.9 | 33.8 | 0.00 | 0.00 | 0.00 | 80 | 1099.8 |
| 20260506204005 | 15 | 252 | 11.3 | 35.4 | 0.00 | 0.00 | 0.00 | 80 | 1099.8 |
| 20260506203504 | 15 | 222 | 14.5 | 33.8 | 0.00 | 0.00 | 0.00 | 81 | 1099.8 |
| 20260506202504 | 14 | 236 | 11.3 | 22.5 | 0.00 | 0.00 | 0.00 | 81 | 1099.8 |
| 20260506202004 | 14 | 237 | 11.3 | 20.9 | 0.00 | 0.00 | 0.00 | 80 | 1099.8 |
| 20260506201504 | 14 | 220 | 11.3 | 20.9 | 0.00 | 0.00 | 0.00 | 80 | 1099.8 |
| 20260506201004 | 14 | 212 | 9.7 | 32.2 | 0.00 | 0.00 | 0.00 | 80 | 1099.8 |
| 20260506200505 | 15 | 233 | 11.3 | 37.0 | 0.00 | 0.00 | 0.00 | 80 | 1099.8 |
| 20260506200005 | 15 | 240 | 9.7 | 32.2 | 0.00 | 0.00 | 0.00 | 79 | 1099.8 |
| 20260506195504 | 15 | 229 | 12.9 | 35.4 | 0.00 | 0.00 | 0.00 | 79 | 1099.8 |
| 20260506195004 | 15 | 220 | 8.0 | 24.1 | 0.00 | 0.00 | 0.00 | 79 | 1099.8 |
| 20260506194505 | 15 | 230 | 14.5 | 25.7 | 0.00 | 0.00 | 0.00 | 79 | 1099.8 |
| 20260506194005 | 15 | 230 | 11.3 | 35.4 | 0.00 | 0.00 | 0.00 | 79 | 1099.8 |
| 20260506193505 | 15 | 224 | 9.7 | 32.2 | 0.00 | 0.00 | 0.00 | 79 | 1099.8 |
| 20260506193005 | 15 | 207 | 14.5 | 32.2 | 0.00 | 0.00 | 0.00 | 79 | 1099.8 |
| 20260506192505 | 15 | 193 | 14.5 | 33.8 | 0.00 | 0.00 | 0.00 | 78 | 1099.8 |
| 20260506192005 | 15 | 226 | 9.7 | 29.0 | 0.00 | 0.00 | 0.00 | 78 | 1099.8 |
| 20260506191505 | 15 | 263 | 9.7 | 32.2 | 0.00 | 0.00 | 0.00 | 78 | 1099.8 |
| 20260506191004 | 15 | 240 | 9.7 | 29.0 | 0.00 | 0.00 | 0.00 | 78 | 1099.8 |
| 20260506190504 | 15 | 215 | 9.7 | 32.2 | 0.00 | 0.00 | 0.00 | 78 | 1099.8 |
| 20260506190005 | 15 | 207 | 9.7 | 29.0 | 0.00 | 0.00 | 0.00 | 78 | 1099.8 |
| 20260506185504 | 15 | 223 | 16.1 | 35.4 | 0.00 | 0.00 | 0.00 | 77 | 1099.8 |
| 20260506184504 | 15 | 238 | 16.1 | 38.6 | 0.00 | 0.00 | 0.00 | 78 | 1099.8 |
| 20260506184005 | 15 | 213 | 12.9 | 32.2 | 0.00 | 0.00 | 0.00 | 77 | 1099.8 |
| 20260506183504 | 15 | 216 | 11.3 | 22.5 | 0.00 | 0.00 | 0.00 | 77 | 1099.8 |
| 20260506183005 | 15 | 227 | 14.5 | 29.0 | 0.00 | 0.00 | 0.00 | 77 | 1099.8 |
| 20260506182504 | 15 | 230 | 9.7 | 22.5 | 0.00 | 0.00 | 0.00 | 77 | 1099.8 |
| 20260506182004 | 15 | 235 | 9.7 | 29.0 | 0.00 | 0.00 | 0.00 | 77 | 1099.8 |
| 20260506181004 | 16 | 194 | 9.7 | 24.1 | 0.00 | 0.00 | 0.00 | 75 | 1099.8 |
| 20260506180504 | 16 | 224 | 9.7 | 24.1 | 0.00 | 0.00 | 0.00 | 75 | 1099.8 |
| 20260506180005 | 17 | 196 | 9.7 | 24.1 | 0.00 | 0.00 | 0.00 | 75 | 1099.8 |
| 20260506175505 | 17 | 212 | 14.5 | 29.0 | 0.00 | 0.00 | 0.00 | 74 | 1099.8 |
| 20260506174505 | 17 | 239 | 14.5 | 35.4 | 0.00 | 0.00 | 0.00 | 75 | 1099.8 |
| 20260506174004 | 17 | 241 | 17.7 | 37.0 | 0.00 | 0.00 | 0.00 | 74 | 1099.8 |
| 20260506173505 | 17 | 235 | 9.7 | 25.7 | 0.00 | 0.00 | 0.00 | 74 | 1099.8 |
| 20260506173004 | 17 | 237 | 9.7 | 38.6 | 0.00 | 0.00 | 0.00 | 75 | 1099.8 |
| 20260506172504 | 16 | 228 | 14.5 | 40.2 | 0.00 | 0.00 | 0.00 | 74 | 1099.8 |
| 20260506172005 | 17 | 217 | 11.3 | 40.2 | 0.00 | 0.00 | 0.00 | 75 | 1099.8 |
| 20260506171504 | 16 | 222 | 11.3 | 20.9 | 0.00 | 0.00 | 0.00 | 76 | 1099.8 |
| 20260506171005 | 16 | 252 | 16.1 | 40.2 | 0.00 | 0.00 | 0.00 | 76 | 1099.8 |
| 20260506170505 | 16 | 212 | 12.9 | 38.6 | 0.00 | 0.00 | 0.00 | 76 | 1099.8 |
| 20260506170005 | 16 | 193 | 11.3 | 29.0 | 0.00 | 0.00 | 0.00 | 76 | 1099.8 |
| 20260506165505 | 16 | 215 | 14.5 | 33.8 | 0.00 | 0.00 | 0.00 | 75 | 1099.8 |
| 20260506165005 | 16 | 198 | 11.3 | 24.1 | 0.00 | 0.00 | 0.00 | 75 | 1099.8 |
| 20260506164504 | 16 | 205 | 8.0 | 22.5 | 0.00 | 0.00 | 0.00 | 75 | 1099.8 |
| 20260506164004 | 16 | 216 | 14.5 | 37.0 | 0.00 | 0.00 | 0.00 | 75 | 1099.8 |
| 20260506163505 | 17 | 211 | 11.3 | 20.9 | 0.00 | 0.00 | 0.00 | 75 | 1099.8 |
| 20260506163005 | 17 | 225 | 11.3 | 25.7 | 0.00 | 0.00 | 0.00 | 74 | 1099.8 |
| 20260506162504 | 17 | 255 | 8.0 | 22.5 | 0.00 | 0.00 | 0.00 | 75 | 1099.8 |
| 20260506162004 | 17 | 216 | 9.7 | 33.8 | 0.00 | 0.00 | 0.00 | 75 | 1099.8 |
| 20260506161504 | 17 | 255 | 12.9 | 32.2 | 0.00 | 0.00 | 0.00 | 74 | 1099.8 |
| 20260506161005 | 16 | 226 | 8.0 | 32.2 | 0.00 | 0.00 | 0.00 | 76 | 1099.8 |
| 20260506160504 | 16 | 243 | 19.3 | 49.9 | 0.00 | 0.00 | 0.00 | 75 | 1099.8 |
| 20260506160005 | 16 | 211 | 11.3 | 24.1 | 0.00 | 0.00 | 0.00 | 74 | 1099.8 |
| 20260506155505 | 16 | 229 | 9.7 | 32.2 | 0.00 | 0.00 | 0.00 | 75 | 1099.8 |
| 20260506155004 | 17 | 214 | 16.1 | 40.2 | 0.00 | 0.00 | 0.00 | 75 | 1099.8 |
| 20260506153004 | 16 | 202 | 16.1 | 32.2 | 0.00 | 0.00 | 0.00 | 75 | 1099.8 |
| 20260506152004 | 16 | 202 | 14.5 | 40.2 | 0.00 | 0.00 | 0.00 | 75 | 1099.8 |
| 20260506151505 | 16 | 233 | 11.3 | 22.5 | 0.00 | 0.00 | 0.00 | 76 | 1099.8 |
| 20260506151004 | 16 | 225 | 9.7 | 22.5 | 0.00 | 0.00 | 0.00 | 76 | 1099.8 |
| 20260506150505 | 16 | 225 | 12.9 | 35.4 | 0.00 | 0.00 | 0.00 | 76 | 1099.8 |
| 20260506150004 | 15 | 241 | 9.7 | 22.5 | 0.00 | 0.00 | 0.00 | 77 | 1099.8 |
| 20260506145506 | 15 | 228 | 11.3 | 32.2 | 0.00 | 0.00 | 0.00 | 77 | 1099.8 |
| 20260506145006 | 16 | 227 | 12.9 | 22.5 | 0.00 | 0.00 | 0.00 | 76 | 1099.8 |
| 20260506144504 | 16 | 214 | 11.3 | 32.2 | 0.00 | 0.00 | 0.00 | 77 | 1099.8 |
| 20260506144005 | 15 | 231 | 14.5 | 32.2 | 0.00 | 0.00 | 0.00 | 77 | 1099.8 |
| 20260506143505 | 15 | 239 | 12.9 | 20.9 | 0.00 | 0.00 | 0.00 | 76 | 1099.8 |
| 20260506143004 | 16 | 223 | 11.3 | 37.0 | 0.00 | 0.00 | 0.00 | 77 | 1099.8 |
| 20260506142504 | 16 | 218 | 16.1 | 41.8 | 0.00 | 0.00 | 0.00 | 75 | 1099.8 |
| 20260506141504 | 17 | 189 | 12.9 | 24.1 | 0.00 | 0.00 | 0.00 | 74 | 1099.8 |
| 20260506140504 | 17 | 233 | 11.3 | 35.4 | 0.00 | 0.00 | 0.00 | 74 | 1099.8 |
| 20260506140005 | 17 | 232 | 8.0 | 24.1 | 0.00 | 0.00 | 0.00 | 75 | 1099.8 |
| 20260506135004 | 16 | 211 | 14.5 | 29.0 | 0.00 | 0.00 | 0.00 | 75 | 1099.8 |
| 20260506134505 | 16 | 265 | 12.9 | 24.1 | 0.00 | 0.00 | 0.00 | 75 | 1099.8 |
| 20260506134004 | 16 | 238 | 8.0 | 19.3 | 0.00 | 0.00 | 0.00 | 76 | 1099.8 |
| 20260506133504 | 16 | 229 | 9.7 | 24.1 | 0.00 | 0.00 | 0.00 | 76 | 1099.8 |
| 20260506133005 | 16 | 230 | 11.3 | 20.9 | 0.00 | 0.00 | 0.00 | 77 | 1099.8 |
| 20260506132504 | 16 | 218 | 11.3 | 32.2 | 0.00 | 0.00 | 0.00 | 77 | 1099.8 |
| 20260506132005 | 16 | 221 | 8.0 | 29.0 | 0.00 | 0.00 | 0.00 | 78 | 1099.8 |
| 20260506131504 | 16 | 207 | 11.3 | 22.5 | 0.00 | 0.00 | 0.00 | 77 | 1099.8 |
| 20260506130504 | 15 | 203 | 14.5 | 33.8 | 0.00 | 0.00 | 0.00 | 77 | 1099.8 |
| 20260506125504 | 16 | 214 | 9.7 | 22.5 | 0.00 | 0.00 | 0.00 | 77 | 1099.8 |
| 20260506125005 | 16 | 225 | 11.3 | 35.4 | 0.00 | 0.00 | 0.00 | 78 | 1099.8 |
| 20260506124504 | 16 | 232 | 4.8 | 20.9 | 0.00 | 0.00 | 0.00 | 79 | 1099.8 |
| 20260506124005 | 15 | 224 | 6.4 | 22.5 | 0.00 | 0.00 | 0.00 | 79 | 1099.8 |
| 20260506123505 | 15 | 201 | 14.5 | 45.1 | 0.00 | 0.00 | 0.00 | 79 | 1099.8 |
| 20260506122504 | 15 | 203 | 9.7 | 20.9 | 0.00 | 0.00 | 0.00 | 80 | 1099.8 |
| 20260506122005 | 15 | 236 | 6.4 | 14.5 | 0.00 | 0.00 | 0.00 | 80 | 1099.8 |
| 20260506121504 | 15 | 167 | 9.7 | 19.3 | 0.00 | 0.00 | 0.00 | 80 | 1099.8 |
| 20260506121005 | 15 | 233 | 9.7 | 20.9 | 0.00 | 0.00 | 0.00 | 80 | 1099.8 |
| 20260506120504 | 15 | 244 | 9.7 | 19.3 | 0.00 | 0.00 | 0.00 | 81 | 1099.8 |
| 20260506120005 | 15 | 244 | 6.4 | 16.1 | 0.00 | 0.00 | 0.00 | 81 | 1099.8 |
| 20260506115005 | 14 | 229 | 9.7 | 24.1 | 0.00 | 0.00 | 0.00 | 82 | 1099.8 |
| 20260506114504 | 14 | 206 | 8.0 | 14.5 | 0.00 | 0.00 | 0.00 | 83 | 1099.8 |
| 20260506113505 | 14 | 211 | 8.0 | 33.8 | 0.00 | 0.00 | 0.00 | 83 | 1099.8 |
| 20260506113005 | 14 | 238 | 9.7 | 24.1 | 0.00 | 0.00 | 0.00 | 83 | 1099.8 |
| 20260506111504 | 14 | 202 | 9.7 | 24.1 | 0.00 | 0.00 | 0.00 | 84 | 1099.8 |
| 20260506111004 | 13 | 213 | 8.0 | 14.5 | 0.00 | 0.00 | 0.00 | 85 | 1099.8 |
| 20260506110504 | 13 | 218 | 6.4 | 25.7 | 0.00 | 0.00 | 0.00 | 86 | 1099.8 |
| 20260506110004 | 13 | 224 | 8.0 | 24.1 | 0.00 | 0.00 | 0.00 | 86 | 1099.8 |
| 20260506105504 | 13 | 233 | 8.0 | 19.3 | 0.00 | 0.00 | 0.00 | 87 | 1099.8 |
| 20260506105005 | 12 | 217 | 4.8 | 19.3 | 0.00 | 0.00 | 0.00 | 87 | 1099.8 |
| 20260506104505 | 12 | 221 | 4.8 | 22.5 | 0.00 | 0.00 | 0.00 | 87 | 1099.8 |
| 20260506104005 | 12 | 204 | 8.0 | 22.5 | 0.00 | 0.00 | 0.00 | 87 | 1099.8 |
| 20260506103505 | 12 | 240 | 8.0 | 22.5 | 0.00 | 0.00 | 0.00 | 87 | 1099.8 |
| 20260506103005 | 12 | 228 | 8.0 | 22.5 | 0.00 | 0.00 | 0.00 | 87 | 1099.8 |
| 20260506101504 | 12 | 237 | 8.0 | 19.3 | 0.00 | 0.00 | 0.00 | 87 | 1099.8 |
| 20260506101004 | 12 | 219 | 8.0 | 19.3 | 0.00 | 0.00 | 0.00 | 87 | 1099.8 |
| 20260506100504 | 12 | 201 | 9.7 | 19.3 | 0.00 | 0.00 | 0.00 | 87 | 1099.8 |
| 20260506095504 | 12 | 199 | 6.4 | 16.1 | 0.00 | 0.00 | 0.00 | 87 | 1099.8 |
| 20260506095005 | 12 | 231 | 8.0 | 16.1 | 0.00 | 0.00 | 0.00 | 87 | 1099.8 |
| 20260506094504 | 12 | 193 | 8.0 | 16.1 | 0.00 | 0.00 | 0.00 | 87 | 1099.8 |
| 20260506094006 | 12 | 210 | 8.0 | 19.3 | 0.00 | 0.00 | 0.00 | 87 | 1099.8 |
| 20260506093505 | 12 | 218 | 6.4 | 20.9 | 0.00 | 0.00 | 0.00 | 86 | 1099.8 |
| 20260506093004 | 13 | 209 | 8.0 | 19.3 | 0.00 | 0.00 | 0.00 | 86 | 1099.8 |
| 20260506092005 | 13 | 216 | 8.0 | 19.3 | 0.00 | 0.00 | 0.00 | 86 | 1099.8 |
| 20260506091505 | 13 | 229 | 9.7 | 19.3 | 0.00 | 0.00 | 0.00 | 86 | 1099.8 |
| 20260506091005 | 13 | 222 | 8.0 | 19.3 | 0.00 | 0.00 | 0.00 | 86 | 1099.8 |
| 20260506090505 | 13 | 229 | 8.0 | 32.2 | 0.00 | 0.00 | 0.00 | 86 | 1099.8 |
| 20260506090004 | 13 | 208 | 11.3 | 32.2 | 0.00 | 0.00 | 0.00 | 86 | 1099.8 |
| 20260506085504 | 13 | 238 | 9.7 | 25.7 | 0.00 | 0.00 | 0.00 | 86 | 1099.8 |
| 20260506085005 | 13 | 205 | 6.4 | 19.3 | 0.00 | 0.00 | 0.00 | 87 | 1099.8 |
| 20260506084504 | 13 | 229 | 6.4 | 24.1 | 0.00 | 0.00 | 0.00 | 87 | 1099.8 |
| 20260506084004 | 13 | 229 | 11.3 | 22.5 | 0.00 | 0.00 | 0.00 | 87 | 1099.8 |
| 20260506083504 | 13 | 224 | 8.0 | 19.3 | 0.00 | 0.00 | 0.00 | 87 | 1099.8 |
| 20260506083005 | 13 | 201 | 8.0 | 20.9 | 0.00 | 0.00 | 0.00 | 87 | 1099.8 |
| 20260506082504 | 13 | 237 | 11.3 | 29.0 | 0.00 | 0.00 | 0.00 | 87 | 1099.8 |
| 20260506082005 | 13 | 200 | 9.7 | 25.7 | 0.00 | 0.00 | 0.00 | 87 | 1099.8 |
| 20260506081505 | 13 | 232 | 8.0 | 25.7 | 0.00 | 0.00 | 0.00 | 87 | 1099.8 |
| 20260506081004 | 13 | 201 | 9.7 | 22.5 | 0.00 | 0.00 | 0.00 | 87 | 1099.8 |
| 20260506080505 | 13 | 229 | 4.8 | 20.9 | 0.00 | 0.00 | 0.00 | 87 | 1099.8 |